Location: Grand Summit Oil Field
(37.3770°N, 96.5253°W)
Time: 05:23:05
(UTC+00:00)

Daily predictions for brighter satellites

Satellite Brightness Start Highest point End
(mag) Time Altitude Azimuth Time Altitude Azimuth Time Altitude Azimuth
Cosmos 1812 Rocket 3.6 00:00:42 10° N 00:05:12 87° E 00:09:40 10° S
Cosmos 2333 Rocket 3.7 00:00:58 10° NW 00:06:19 43° WSW 00:11:37 10° S
H-2A R/B 3.3 00:04:01 10° S 00:07:49 65° W 00:11:41 10° NNW
Nadezhda 3 Rocket 4.1 00:01:38 10° N 00:07:58 88° W 00:14:20 10° S
CORIOLIS 4.2 00:02:49 10° SSE 00:08:11 86° ENE 00:13:34 10° NNW
Atlas Centaur 2 3.2 00:05:39 10° SW 00:09:11 25° SSE 00:13:24 10° ESE
YAOGAN 1 3.8 00:07:02 10° ESE 00:10:12 20° ENE 00:13:25 10° NNE
Cosmos 1340 Rocket 3.3 00:11:37 10° NNW 00:15:34 67° W 00:19:32 10° S
SL-16 R/B 3.0 00:13:53 10° N 00:18:47 29° ENE 00:23:38 10° ESE
SL-8 Rocket 4.1 00:14:45 10° S 00:20:55 60° E 00:27:05 10° NNE
Cosmos 2219 4.2 00:16:24 10° SW 00:21:48 48° WNW 00:27:14 10° N
CZ-4C R/B 3.6 00:14:31 10° NW 00:22:02 67° WSW 00:30:20 10° SSE
Cosmos 2082 3.7 00:16:59 10° S 00:22:30 63° ESE 00:28:04 10° NNE
Cosmos 2297 Rocket 2.8 00:24:31 10° SW 00:30:04 59° WNW 00:35:41 10° NNE
USA 234 3.2 00:26:37 10° SE 00:33:07 75° NE 00:39:39 10° NW
Cosmos 2251 Rocket 4.2 00:29:30 10° N 00:34:13 31° ENE 00:38:56 10° SE
Cosmos 2341 Rocket 4.3 00:28:00 10° S 00:34:22 76° W 00:40:44 10° N
YAOGAN 6 2.6 00:33:35 10° S 00:37:16 86° WSW 00:40:57 10° NNW
Cosmos 1980 4.2 00:32:23 10° NNW 00:38:01 66° WSW 00:43:38 10° S
USA 32 4.5 00:33:11 10° SSW 00:38:22 65° W 00:43:35 10° N
Cosmos 1953 Rocket 3.6 00:35:46 10° S 00:40:14 86° E 00:44:46 10° N
Cosmos 2263 Rocket 3.6 00:38:10 10° SE 00:41:17 15° E 00:41:53 15° E
Meteor 2-10 Rocket 3.5 00:36:37 10° N 00:41:49 62° E 00:46:48 10° SSE
BREEZE-M DEB (TANK) 3.3 00:37:45 10° SW 00:42:56 57° SE 00:44:30 22° ENE
Cosmos 2227 Rocket 3.0 00:37:33 10° SW 00:43:02 51° WNW 00:48:33 10° NNE
Cosmos 1703 3.2 00:39:30 10° S 00:43:25 70° E 00:47:23 10° NNE
NOAA 11 4.4 00:39:32 10° SE 00:44:46 48° ENE 00:50:01 10° N
COSMO-SKYMED 1 2.9 00:41:35 10° N 00:45:55 69° WNW 00:50:12 10° SSW
FengYun 1-2 T 4.3 00:40:53 10° SSE 00:46:31 87° WSW 00:52:12 10° NNW
Shenzhou-11 Module 3.1 00:47:26 10° WNW 00:49:48 26° N 00:50:36 22° NNE
Envisat 4.0 00:45:27 10° S 00:50:21 49° W 00:55:17 10° NNW
Cosmos 1939 Rocket 3.1 00:48:33 10° SE 00:52:13 41° ENE 00:55:57 10° N
Cosmos 44 4.4 00:52:02 10° SW 00:56:22 38° NW 01:00:32 10° NNE
Cosmos 864 Rocket 4.4 00:52:11 10° S 00:58:19 90° ENE 01:04:28 10° N
DELTA 2 R/B (1) 3.6 00:53:09 10° W 00:58:45 72° N 01:02:03 25° E
Cosmos 2218 Rocket 4.2 00:54:27 10° S 01:00:46 79° W 01:07:12 10° N
Cosmos 1339 Rocket 4.5 00:56:39 10° N 01:02:46 88° W 01:08:55 10° S
ADEOS Rocket 3.6 00:56:10 10° NNE 01:02:51 51° E 01:10:05 10° S
DELTA 2 R/B(2) 3.8 01:00:58 10° WNW 01:02:45 50° NNW 01:02:45 50° NNW
SL-08 R/B 4.4 00:57:01 10° S 01:03:15 71° E 01:09:37 10° N
CZ-2D R/B 3.1 01:07:49 10° SSE 01:11:37 76° ENE 01:15:28 10° N
CSL-04 Debris 4.1 01:07:44 10° SSE 01:13:07 90° WSW 01:18:32 10° NNW
ISS -1.2 01:11:56 10° NW 01:13:45 14° NNW 01:14:50 12° N
Cosmos 1455 3.3 01:10:29 10° NNW 01:14:07 46° W 01:17:43 10° SSW
CZ-4 R/B 3.1 01:24:44 10° SSW 01:28:27 35° W 01:32:15 10° NNW
Cosmos 44 Rocket 3.1 01:26:04 10° SSW 01:30:53 79° ESE 01:32:03 52° NE
Meteor 2-12 Rocket 4.4 01:25:50 10° S 01:31:53 84° W 01:37:58 10° N
Cosmos 2221 4.3 01:28:52 10° N 01:30:04 18° N 01:30:04 18° N
Cosmos 1000 Rocket 4.5 01:27:18 10° N 01:33:24 56° E 01:39:31 10° SSE
Ariane Rocket 2.9 01:28:43 10° SSE 01:33:40 60° ENE 01:38:41 10° N
ATLAS CENTAUR R/B 2.5 01:31:13 10° NNW 01:33:23 29° N 01:33:23 29° N
CSL-04 Rocket 4.3 01:30:31 10° S 01:35:52 57° WSW 01:41:21 10° NNW
OAO 2 Rocket 4.3 01:36:58 10° SW 01:41:12 32° SSE 01:41:12 32° SSE
YAOGAN 1 4.4 01:42:15 10° SSW 01:46:05 31° W 01:49:57 10° NW
Atlas Centaur 2 2.8 01:52:58 10° WSW 01:57:32 40° S 01:57:36 40° S
Timation 1 Rocket 4.2 01:51:57 10° SSW 01:57:48 74° ESE 01:57:48 74° ESE
NOSS 3-2 (A) 3.5 01:55:05 10° SSW 01:59:37 55° SSE 01:59:37 55° SSE
Cosmos 2227 4.3 01:55:20 10° SSW 02:01:04 75° WNW 02:02:19 55° N
CENTAUR R/B 4.5 01:57:27 10° SSE 01:57:37 11° SSE 01:57:37 11° SSE
SL-16 R/B 3.6 01:57:45 10° NW 02:02:54 37° WSW 02:08:01 10° S
H-2A R/B 4.4 02:12:41 11° N 02:12:41 11° N 02:12:56 10° N
Cosmos 2263 Rocket 2.7 02:19:06 10° SSW 02:23:39 54° WSW 02:23:39 54° WSW
USA 238 DEB 4.0 02:32:50 10° SW 02:38:48 61° W 02:38:48 61° W
USA 238 4.0 02:32:58 10° SW 02:38:51 60° W 02:38:51 60° W
FALCON 9 R/B 4.3 03:16:21 10° WSW 03:22:16 29° WSW 03:22:16 29° WSW
ATLAS 2AS CENTAUR R/B 4.0 10:00:28 39° ESE 10:00:50 39° ESE 10:08:06 10° NE
Cosmos 1980 Rocket 4.4 10:24:06 18° NNE 10:24:06 18° NNE 10:25:31 10° NNE
Lacrosse 5 2.9 10:59:45 42° SE 10:59:59 42° SE 11:04:46 10° NE
ATLAS 3B R/B 4.2 11:02:17 16° N 11:06:38 30° NE 11:12:35 10° ESE
Cosmos 2322 Rocket 3.5 11:06:29 10° S 11:11:39 38° ESE 11:16:52 10° NE
NOSS 3-4 (A) 3.2 11:15:57 66° SSW 11:16:53 90° WNW 11:23:07 10° NNE
NOSS 3-4 (C) 3.2 11:15:58 64° SSW 11:16:59 89° ESE 11:23:14 10° NNE
Cosmos 972 Rocket 4.4 11:14:35 27° N 11:17:48 67° ENE 11:23:06 10° SSE
Cosmos 1825 Rocket 4.2 11:18:13 50° NE 11:18:48 54° E 11:23:03 10° SSE
Cosmos 2263 Rocket 3.3 11:15:56 17° N 11:19:53 42° ENE 11:25:14 10° SE
Cosmos 2344 4.1 11:20:46 37° NW 11:20:46 37° NW 11:27:34 10° NNE
Okean O Rocket 4.0 11:18:19 10° NE 11:21:52 23° E 11:25:23 10° SSE
Meteor 1-21 Rocket 4.3 11:18:02 20° N 11:22:16 84° E 11:28:12 10° S
Cosmos 1680 Rocket 3.6 11:21:46 16° S 11:26:07 79° ESE 11:31:27 10° NNE
NOSS 3-2 (A) 4.0 11:22:52 37° NW 11:26:28 80° WSW 11:35:01 10° SSE
CENTAUR R/B 3.6 11:20:50 18° NNW 11:27:09 62° NE 11:35:47 10° SE
Cosmos 1606 Rocket 3.8 11:34:32 55° N 11:34:32 55° N 11:38:01 10° N
Cosmos 1726 Rocket 3.6 11:29:32 10° S 11:33:58 77° E 11:38:24 10° N
Cosmos 2341 Rocket 4.0 11:27:50 10° N 11:34:07 84° E 11:40:19 10° S
BREEZE-M DEB (TANK) 3.8 11:32:21 40° WNW 11:34:53 54° SW 11:38:46 10° SSE
Gbstr 26 Del rocket 4.2 11:33:54 46° WSW 11:36:09 70° NW 11:44:00 10° NE
COSMO-SKYMED 1 2.8 11:34:08 10° SSE 11:38:26 70° ENE 11:41:17 21° N
STARLINK 1047 4.4 11:44:24 35° NNE 11:44:24 35° NNE 11:46:52 10° NE
Cosmos 2112 Rocket 3.9 11:38:55 10° SSW 11:44:16 84° WNW 11:49:39 10° NNE
Cosmos 2228 2.9 11:40:03 10° SSW 11:44:25 70° W 11:48:49 10° N
CZ-3 R/B 3.3 11:33:19 27° WSW 11:44:54 53° SSW 11:51:43 10° ESE
STARLINK 1037 4.3 11:46:01 35° N 11:46:01 35° N 11:48:34 10° NE
RESURS DK-1 3.5 11:41:51 10° S 11:45:46 44° ESE 11:49:43 10° NE
Cosmos 1328 4.3 11:43:35 13° N 11:47:07 59° E 11:51:00 10° SSE
STARLINK 1059 4.3 11:49:12 36° N 11:49:12 36° N 11:51:51 10° NE
Cosmos 1908 3.2 11:46:35 10° S 11:50:29 81° E 11:54:24 10° N
STARLINK 1057 4.2 11:52:23 36° N 11:52:23 36° N 11:55:08 10° NE
ATLAS 2AS CENTAUR R/B 3.2 11:48:00 30° WSW 11:51:42 49° NW 11:59:26 10° NNE
Genesis I 3.9 11:50:52 29° N 11:52:31 50° ENE 11:56:13 10° SE
SL-16 R/B 2.1 11:47:38 10° SSW 11:53:17 77° WNW 11:58:59 10° NNE
COSMOS 2455 3.9 11:54:09 26° NW 11:54:09 26° NW 11:58:25 10° N
STARLINK 1052 4.2 11:55:35 35° N 11:55:35 35° N 11:58:27 10° NE
